When you browse on this site, cookies collect data to enhance your experience and personalize the content and advertising you see.
Visit our Privacy Policy to learn more. By continuing to use the site, you agree to this use of cookies and data.
  • In Portugal
  • List of Countries
  • For 7 days
  • Water Temperature
  • Satellite Maps
  • Weather Map
  • Weather Widgets
  • user-avatar
    Login

    Hourly Weather Nakhchivan

    Today, 24 May, Friday

    Time Temperature Precipitation Wind Pressure Humidity
    00:00 +23°C° 0.1 mm 1 mps 688 mmHg 50%
    01:00 +23°C° 0 mm 1 mps 688 mmHg 51%
    02:00 +22°C° 0 mm 1 mps 688 mmHg 51%
    03:00 +22°C° 0 mm 1 mps 687 mmHg 52%
    04:00 +22°C° 0.1 mm 1 mps 687 mmHg 51%
    05:00 +22°C° 0.1 mm 1 mps 688 mmHg 50%
    06:00 +22°C° 0.1 mm 1 mps 688 mmHg 50%
    07:00 +23°C° 0 mm 1 mps 687 mmHg 46%
    08:00 +24°C° 0 mm 1 mps 687 mmHg 43%
    09:00 +25°C° 0 mm 2 mps 687 mmHg 40%
    10:00 +27°C° 0 mm 2 mps 687 mmHg 36%
    11:00 +29°C° 0 mm 2 mps 687 mmHg 32%
    12:00 +30°C° 0 mm 3 mps 687 mmHg 28%
    13:00 +33°C° 0 mm 4 mps 687 mmHg 25%
    14:00 +34°C° 0 mm 5 mps 687 mmHg 21%
    15:00 +35°C° 0 mm 6 mps 688 mmHg 18%
    16:00 +35°C° 0 mm 6 mps 688 mmHg 18%
    17:00 +34°C° 0 mm 6 mps 688 mmHg 19%
    18:00 +34°C° 0 mm 6 mps 688 mmHg 19%
    19:00 +32°C° 0 mm 4 mps 688 mmHg 24%
    20:00 +29°C° 0 mm 3 mps 688 mmHg 28%
    21:00 +28°C° 0 mm 1 mps 689 mmHg 33%
    22:00 +27°C° 0 mm 1 mps 689 mmHg 33%
    23:00 +26°C° 0 mm 1 mps 689 mmHg 34%

    Tomorrow, 25 May, Saturday

    Time Temperature Precipitation Wind Pressure Humidity
    00:00 +26°C° 0 mm 1 mps 688 mmHg 35%
    01:00 +25°C° 0 mm 1 mps 689 mmHg 35%
    02:00 +25°C° 0 mm 1 mps 689 mmHg 35%
    03:00 +25°C° 0 mm 2 mps 689 mmHg 35%
    04:00 +25°C° 0 mm 2 mps 689 mmHg 35%
    05:00 +25°C° 0 mm 1 mps 689 mmHg 35%
    06:00 +25°C° 0 mm 1 mps 689 mmHg 34%
    07:00 +27°C° 0 mm 1 mps 689 mmHg 31%
    08:00 +28°C° 0 mm 2 mps 689 mmHg 27%
    09:00 +30°C° 0 mm 2 mps 689 mmHg 24%
    10:00 +32°C° 0 mm 2 mps 689 mmHg 21%
    11:00 +34°C° 0 mm 3 mps 689 mmHg 18%
    12:00 +36°C° 0 mm 3 mps 689 mmHg 15%
    13:00 +36°C° 0 mm 4 mps 689 mmHg 15%
    14:00 +36°C° 0 mm 5 mps 688 mmHg 16%
    15:00 +36°C° 0 mm 7 mps 688 mmHg 16%
    16:00 +36°C° 0 mm 6 mps 688 mmHg 18%
    17:00 +35°C° 0 mm 5 mps 688 mmHg 20%
    18:00 +34°C° 0 mm 4 mps 688 mmHg 22%
    19:00 +32°C° 0.6 mm 4 mps 688 mmHg 29%
    20:00 +29°C° 0.6 mm 5 mps 688 mmHg 36%
    21:00 +26°C° 0.6 mm 5 mps 688 mmHg 43%
    22:00 +26°C° 0 mm 4 mps 688 mmHg 44%
    23:00 +25°C° 0 mm 3 mps 687 mmHg 45%

    Day after tomorrow, 26 May, Sunday

    Time Temperature Precipitation Wind Pressure Humidity
    00:00 +25°C° 0 mm 1 mps 687 mmHg 47%
    01:00 +24°C° 0 mm 1 mps 687 mmHg 45%
    02:00 +24°C° 0 mm 1 mps 687 mmHg 44%
    03:00 +24°C° 0 mm 1 mps 687 mmHg 43%
    04:00 +24°C° 0 mm 1 mps 687 mmHg 41%
    05:00 +25°C° 0 mm 1 mps 687 mmHg 39%
    06:00 +25°C° 0 mm 1 mps 687 mmHg 37%
    07:00 +27°C° 0 mm 1 mps 687 mmHg 33%
    08:00 +28°C° 0 mm 2 mps 687 mmHg 29%
    09:00 +30°C° 0 mm 2 mps 687 mmHg 25%
    10:00 +31°C° 0 mm 2 mps 687 mmHg 23%
    11:00 +33°C° 0 mm 3 mps 687 mmHg 20%
    12:00 +35°C° 0 mm 3 mps 687 mmHg 18%
    13:00 +34°C° 0 mm 4 mps 686 mmHg 19%
    14:00 +34°C° 0 mm 4 mps 686 mmHg 20%
    15:00 +34°C° 0 mm 4 mps 686 mmHg 20%
    16:00 +34°C° 0 mm 4 mps 686 mmHg 21%
    17:00 +34°C° 0 mm 3 mps 686 mmHg 21%
    18:00 +34°C° 0 mm 2 mps 686 mmHg 21%
    19:00 +31°C° 0.3 mm 1 mps 686 mmHg 25%
    20:00 +29°C° 0.3 mm 1 mps 687 mmHg 29%
    21:00 +27°C° 0.3 mm 1 mps 687 mmHg 32%
    22:00 +26°C° 0 mm 1 mps 687 mmHg 33%
    23:00 +25°C° 0 mm 1 mps 687 mmHg 34%

    27 May, Monday

    Time Temperature Precipitation Wind Pressure Humidity
    00:00 +25°C° 0 mm 1 mps 687 mmHg 34%
    01:00 +24°C° 0 mm 1 mps 687 mmHg 34%
    02:00 +23°C° 0 mm 2 mps 687 mmHg 35%
    03:00 +23°C° 0 mm 2 mps 687 mmHg 35%
    04:00 +23°C° 0 mm 2 mps 688 mmHg 34%
    05:00 +23°C° 0 mm 2 mps 688 mmHg 34%
    06:00 +23°C° 0 mm 2 mps 688 mmHg 34%
    07:00 +24°C° 0 mm 2 mps 689 mmHg 31%
    08:00 +25°C° 0 mm 2 mps 689 mmHg 29%
    09:00 +26°C° 0 mm 2 mps 689 mmHg 26%
    10:00 +27°C° 0 mm 2 mps 689 mmHg 24%
    11:00 +28°C° 0 mm 2 mps 689 mmHg 21%
    12:00 +29°C° 0 mm 2 mps 689 mmHg 19%
    13:00 +30°C° 0 mm 2 mps 689 mmHg 19%
    14:00 +31°C° 0 mm 2 mps 689 mmHg 18%
    15:00 +31°C° 0 mm 2 mps 688 mmHg 17%
    16:00 +31°C° 0 mm 2 mps 689 mmHg 18%
    17:00 +31°C° 0 mm 3 mps 689 mmHg 18%
    18:00 +30°C° 0 mm 3 mps 689 mmHg 19%
    19:00 +29°C° 0 mm 3 mps 689 mmHg 22%
    20:00 +28°C° 0 mm 3 mps 690 mmHg 26%
    21:00 +26°C° 0 mm 2 mps 690 mmHg 30%
    22:00 +25°C° 0 mm 2 mps 690 mmHg 33%
    23:00 +25°C° 0 mm 2 mps 690 mmHg 36%

    28 May, Tuesday

    Time Temperature Precipitation Wind Pressure Humidity
    00:00 +24°C° 0 mm 2 mps 691 mmHg 39%
    01:00 +23°C° 0 mm 1 mps 691 mmHg 42%
    02:00 +23°C° 0 mm 1 mps 690 mmHg 45%
    03:00 +22°C° 0 mm 1 mps 690 mmHg 48%
    04:00 +22°C° 0 mm 1 mps 691 mmHg 46%
    05:00 +22°C° 0 mm 1 mps 691 mmHg 45%
    06:00 +23°C° 0 mm 1 mps 691 mmHg 44%
    07:00 +24°C° 0 mm 1 mps 691 mmHg 40%
    08:00 +25°C° 0 mm 1 mps 691 mmHg 36%
    09:00 +26°C° 0 mm 1 mps 691 mmHg 31%
    10:00 +27°C° 0 mm 1 mps 691 mmHg 28%
    11:00 +28°C° 0 mm 1 mps 691 mmHg 25%
    12:00 +29°C° 0 mm 1 mps 691 mmHg 22%
    13:00 +30°C° 0 mm 2 mps 691 mmHg 21%
    14:00 +31°C° 0 mm 2 mps 691 mmHg 20%
    15:00 +31°C° 0 mm 2 mps 690 mmHg 19%
    16:00 +31°C° 0 mm 3 mps 691 mmHg 20%
    17:00 +30°C° 0 mm 3 mps 691 mmHg 22%
    18:00 +30°C° 0 mm 3 mps 691 mmHg 23%
    19:00 +29°C° 0 mm 3 mps 691 mmHg 26%
    20:00 +28°C° 0 mm 2 mps 692 mmHg 29%
    21:00 +26°C° 0 mm 2 mps 692 mmHg 32%
    22:00 +26°C° 0 mm 2 mps 692 mmHg 36%
    23:00 +25°C° 0 mm 2 mps 692 mmHg 39%

    29 May, Wednesday

    Time Temperature Precipitation Wind Pressure Humidity
    00:00 +24°C° 0 mm 2 mps 692 mmHg 43%
    01:00 +23°C° 0 mm 2 mps 692 mmHg 46%
    02:00 +23°C° 0 mm 1 mps 691 mmHg 49%
    03:00 +22°C° 0 mm 1 mps 691 mmHg 52%
    04:00 +22°C° 0 mm 1 mps 691 mmHg 51%
    05:00 +22°C° 0 mm 1 mps 692 mmHg 50%
    06:00 +22°C° 0 mm 1 mps 692 mmHg 50%
    07:00 +23°C° 0 mm 1 mps 692 mmHg 46%
    08:00 +24°C° 0 mm 1 mps 691 mmHg 42%
    09:00 +25°C° 0 mm 1 mps 691 mmHg 39%
    10:00 +27°C° 0 mm 1 mps 691 mmHg 35%
    11:00 +28°C° 0 mm 1 mps 691 mmHg 30%
    12:00 +29°C° 0 mm 1 mps 691 mmHg 26%
    13:00 +30°C° 0 mm 1 mps 690 mmHg 24%
    14:00 +31°C° 0 mm 2 mps 690 mmHg 22%
    15:00 +31°C° 0 mm 2 mps 690 mmHg 19%
    16:00 +31°C° 0 mm 2 mps 690 mmHg 20%
    17:00 +31°C° 0 mm 3 mps 690 mmHg 21%
    18:00 +31°C° 0 mm 3 mps 690 mmHg 22%
    19:00 +29°C° 0 mm 3 mps 690 mmHg 26%
    20:00 +28°C° 0 mm 3 mps 690 mmHg 30%
    21:00 +26°C° 0 mm 2 mps 690 mmHg 34%
    22:00 +26°C° 0 mm 2 mps 690 mmHg 37%
    23:00 +25°C° 0 mm 2 mps 690 mmHg 39%
    Show more